Location: Caracas
(10.5033°N, 66.8422°W)
Time: 19:18:24
(UTC-04:00)

N. Korean satellite - Pass Details

Date: 12 November 2017
Orbit: 460 x 514 km, 97.2° (Epoch: 21 November)

Event Time Altitude Azimuth Distance (km) Brightness Sun altitude
Rises 18:51:07 0° 172° (S) 2,477 10.3 -12.5°
Reaches altitude 10° 18:53:10 10° 174° (S) 1,600 9.3 -13.0°
Maximum altitude 18:56:34 73° 259° (W) 481 6.6 -13.8°
Drops below altitude 10° 18:59:59 10° 345° (NNW) 1,597 9.2 -14.6°
Sets 19:02:02 0° 347° (NNW) 2,473 10.1 -15.1°
